Messwerte Kilimanjaro Flughafen

Temperatur

Temperatur
°C
1575597600 5.00 5.00 21
1575601200 6.00 6.00 21
1575604800 7.00 7.00 21
1575608400 8.00 8.00 22
1575612000 9.00 9.00 23
1575615600 10.00 10.00 25
1575619200 11.00 11.00 26
1575622800 12.00 12.00 27
1575626400 13.00 13.00 27
1575630000 14.00 14.00 29
1575633600 15.00 15.00 30
1575637200 16.00 16.00
1575640800 17.00 17.00 30
1575644400 18.00 18.00 28
1575648000 19.00 19.00 26
1575651600 20.00 20.00 25
1575655200 21.00 21.00 24
1575658800 22.00 22.00 24
1575662400 23.00 23.00 24
1575666000 0.00 0.00
1575669600 1.00 1.00 22
1575673200 2.00 2.00
1575676800 3.00 3.00 22
1575680400 4.00 4.00 21

Aktuellste Messwerte

Wettercharakter
Wetter: wechselnd bewölkt, Regen
Temperatur
21 °C
Feuchtigkeit
94 %
Wind
10 km/hWindrichtung: Ost
Luftdruck
1016 hPa
Messzeit: 7. Dezember 2019, 6.00Datenquelle: METAR

Weitere Messstationen in der Nähe

Messstation Temperatur Entfernung
Arusha 18 °C 51 km
Nairobi 18 °C 234 km
Nairobi 18 °C 235 km
Mombasa - 291 km
Malindi 25 °C 337 km
Dodoma 20 °C 338 km
Morogoro 22 °C 384 km

Wind

Windrichtung Böen Mittelwind
° km/h km/h
1575597600 5.00 4.00 - 5.00 180° 10
1575601200 6.00 5.00 - 6.00 200° 10
1575604800 7.00 6.00 - 7.00 0
1575608400 8.00 7.00 - 8.00 0
1575612000 9.00 8.00 - 9.00 0
1575615600 10.00 9.00 - 10.00 120° 10
1575619200 11.00 10.00 - 11.00 0
1575622800 12.00 11.00 - 12.00 0
1575626400 13.00 12.00 - 13.00 0
1575630000 14.00 13.00 - 14.00 60° 10
1575633600 15.00 14.00 - 15.00 0
1575637200 16.00 15.00 - 16.00
1575640800 17.00 16.00 - 17.00 90° 10
1575644400 18.00 17.00 - 18.00 90° 30
1575648000 19.00 18.00 - 19.00 90° 20
1575651600 20.00 19.00 - 20.00 90° 20
1575655200 21.00 20.00 - 21.00 120° 15
1575658800 22.00 21.00 - 22.00 110° 20
1575662400 23.00 22.00 - 23.00 80° 10
1575666000 0.00 23.00 - 0.00
1575669600 1.00 0.00 - 1.00 60° 10
1575673200 2.00 1.00 - 2.00
1575676800 3.00 2.00 - 3.00 90° 10
1575680400 4.00 3.00 - 4.00 120° 10

Ihre Wetterstation

Fehlt Ihre Wetterstation auf unserem Portal?

Schreiben Sie an network@meteonews.ch

Klima

Wann ist es am wärmsten? Wann regnet es am wenigsten? Unsere Klimadaten geben Auskunft.